2015-049G (40905 NORAD) Tracking and Keplerian Element Data

This shows tracking and keplerian element data for the satellite.

Feedback or suggestion? Click here.




ElementValue
Catalog40905
Name2015-049G
Epoch Orbit39637
Epoch Day325.17974499
Epoch Year2022
RAAN323.611
Inclination97.5208
Eccentricity0.0014255
Argument of Perigee181.9147
Mean Anonmoly308.2666
Mean Motion15.17661595
Decay Rate3.472E-05
L11 40905U 15049G 22325.17974499 .00003472 00000+0 17543-3 0 9999
L22 40905 97.5208 323.6110 0014255 181.9147 308.2666 15.17661595396370



Live tracking and technical data element details for 2015-049G (NORAD 40905). 2015-049G can be tracked NOW for your location showing map with azimuth and elevation plus other details from your city location.







IsCatalogInMostPopularTable: catalog: 40905, numindb: 641
Update: records affected: 1



GetName: 40905 2015-049G

Hit Count: updated at: Mon, 28 Nov 2022 05:55:31 GMT